Stanley, ND

7:37 AM CST on February 12, 2016 (GMT -0600)
Stanley

Weather History for K08D - February, 2013

Change the Weather History Date:

Tuesday, February 19, 2013

  Actual Average (KMOT) Record (KMOT)
Temperature  
Mean Temperature -10 °F 18 °F  
Max Temperature -2 °F 26 °F 52 °F (1931)
Min Temperature -18 °F 10 °F -36 °F (1929)
Degree Days  
Heating Degree Days 75 47  
Month to date heating degree days 937  
Since 1 July heating degree days 6169  
Moisture  
Dew Point -17 °F    
Average Humidity 66    
Maximum Humidity 77    
Minimum Humidity 50    
Precipitation  
Precipitation 0.00 in 0.02 in 0.10 in (1986)
Month to date precipitation 0.25  
Year to date precipitation 0.76  
Sea Level Pressure  
Sea Level Pressure 30.28 in    
Wind  
Wind Speed 10 mph (East)    
Max Wind Speed 20 mph    
Max Gust Speed 24 mph    
Visibility 10 miles    
Events      
T = Trace of Precipitation, MM = Missing Value Source: NWS Daily Summary

Daily Weather History Graph

Daily Weather History Graph

Search for Another Location

Airport or City:

Trip Planner

Search our weather history database for the weather conditions in past years. The results will help you decide how hot, cold, wet, or windy it might be!

Date:

Astronomy

Feb. 19, 2013 Rise Set
Actual Time 7:49 AM CST 6:18 PM CST
Civil Twilight 7:17 AM CST 6:50 PM CST
Nautical Twilight 6:40 AM CST 7:26 PM CST
Astronomical Twilight 6:04 AM CST 8:02 PM CST
Moon 12:36 PM CST (2/19) 3:37 AM CST (2/19)
Length of Visible Light 11h 33m
Length of Day
10h 29m
Waxing Gibbous, 67% of the Moon is Illuminated
Feb 19
Waxing Gibbous
Feb 25
Full
Mar 4
Last Quarter
Mar 11
New
Mar 19
First Quarter

Hourly Weather History & Observations

Time (CST) Temp. Windchill Dew Point Humidity Pressure Visibility Wind Dir Wind Speed Gust Speed Precip Events Conditions
12:15 AM -7.6 °F -26.6 °F -13.0 °F 77% 30.26 in 10.0 mi NNE 11.5 mph - N/A   Clear
12:35 AM -7.6 °F -25.7 °F -13.0 °F 77% 30.26 in 10.0 mi NNE 10.4 mph - N/A   Clear
12:55 AM -7.6 °F -22.1 °F -14.8 °F 71% 30.27 in 10.0 mi NNE 6.9 mph - N/A   Clear
1:15 AM -5.8 °F -21.2 °F -16.6 °F 60% 30.27 in 10.0 mi NNE 8.1 mph - N/A   Clear
1:35 AM -7.6 °F -23.4 °F -16.6 °F 65% 30.28 in 10.0 mi North 8.1 mph - N/A   Clear
1:55 AM -9.4 °F -25.6 °F -16.6 °F 71% 30.27 in 10.0 mi NNE 8.1 mph - N/A   Clear
2:15 AM -9.4 °F -22.7 °F -18.4 °F 65% 30.29 in 10.0 mi North 5.8 mph - N/A   Clear
2:35 AM -11.2 °F -26.4 °F -18.4 °F 70% 30.29 in 10.0 mi NNE 6.9 mph - N/A   Clear
2:55 AM -9.4 °F -27.9 °F -20.2 °F 59% 30.28 in 10.0 mi NE 10.4 mph - N/A   Clear
3:15 AM -11.2 °F -31.1 °F -20.2 °F 64% 30.28 in 10.0 mi NNE 11.5 mph 17.3 mph N/A   Clear
3:35 AM -11.2 °F -30.1 °F -20.2 °F 64% 30.28 in 10.0 mi NE 10.4 mph - N/A   Clear
3:55 AM -11.2 °F -31.1 °F -20.2 °F 64% 30.28 in 10.0 mi NE 11.5 mph - N/A   Clear
4:15 AM - - - N/A% 30.27 in 10.0 mi NE 10.4 mph - N/A   Clear
4:35 AM -11.2 °F -23.0 °F -20.2 °F 64% 30.28 in 10.0 mi NE 4.6 mph - N/A   Clear
4:55 AM -13.0 °F -25.1 °F -20.2 °F 70% 30.28 in 10.0 mi NE 4.6 mph - N/A   Clear
5:15 AM -13.0 °F -27.0 °F -22.0 °F 64% 30.28 in 10.0 mi NE 5.8 mph - N/A   Clear
5:55 AM -13.0 °F -25.1 °F -22.0 °F 64% 30.29 in 10.0 mi NE 4.6 mph - N/A   Clear
6:35 AM -14.8 °F - -22.0 °F 70% 30.29 in 10.0 mi Calm Calm - N/A   Clear
6:55 AM -16.6 °F -32.9 °F -22.0 °F 76% 30.29 in 10.0 mi NE 6.9 mph - N/A   Clear
7:15 AM -14.8 °F -29.1 °F -22.0 °F 70% 30.30 in 10.0 mi NE 5.8 mph - N/A   Clear
7:35 AM -16.6 °F -26.8 °F -22.0 °F 76% 30.30 in 10.0 mi ENE 3.5 mph - N/A   Clear
7:55 AM -16.6 °F - -22.0 °F 76% 30.31 in 10.0 mi Calm Calm - N/A   Clear
8:15 AM -18.4 °F - -25.6 °F 70% 30.32 in 10.0 mi Calm Calm - N/A   Clear
8:35 AM -16.6 °F -26.8 °F -22.0 °F 76% 30.32 in 10.0 mi East 3.5 mph - N/A   Clear
8:55 AM -14.8 °F -27.2 °F -22.0 °F 70% 30.31 in 10.0 mi East 4.6 mph - N/A   Clear
9:35 AM -13.0 °F -30.0 °F -20.2 °F 70% 30.31 in 10.0 mi East 8.1 mph - N/A   Clear
9:55 AM -13.0 °F -28.6 °F -20.2 °F 70% 30.32 in 10.0 mi East 6.9 mph - N/A   Clear
10:15 AM -13.0 °F -25.1 °F -20.2 °F 70% 30.33 in 10.0 mi East 4.6 mph - N/A   Clear
10:35 AM -11.2 °F -27.8 °F -20.2 °F 64% 30.32 in 10.0 mi East 8.1 mph - N/A   Clear
10:55 AM -9.4 °F -24.3 °F -18.4 °F 65% 30.32 in 10.0 mi East 6.9 mph - N/A   Clear
11:15 AM -9.4 °F -24.3 °F -18.4 °F 65% 30.32 in 10.0 mi East 6.9 mph - N/A   Clear
11:35 AM -9.4 °F -26.8 °F -18.4 °F 65% 30.33 in 10.0 mi East 9.2 mph - N/A   Clear
11:55 AM -9.4 °F -27.9 °F -18.4 °F 65% 30.33 in 10.0 mi East 10.4 mph - N/A   Clear
12:15 PM -7.6 °F -25.7 °F -16.6 °F 65% 30.34 in 10.0 mi East 10.4 mph - N/A   Clear
12:35 PM -7.6 °F -26.6 °F -16.6 °F 65% 30.32 in 10.0 mi East 11.5 mph - N/A   Clear
12:55 PM -5.8 °F -23.4 °F -16.6 °F 60% 30.31 in 10.0 mi East 10.4 mph - N/A   Clear
1:15 PM -5.8 °F -24.4 °F -16.6 °F 60% 30.30 in 10.0 mi East 11.5 mph - N/A   Clear
1:35 PM -4.0 °F -23.7 °F -16.6 °F 55% 30.30 in 10.0 mi ESE 13.8 mph - N/A   Clear
1:55 PM -4.0 °F -23.7 °F -16.6 °F 55% 30.29 in 10.0 mi ESE 13.8 mph - N/A   Clear
2:15 PM -4.0 °F -24.5 °F -16.6 °F 55% 30.29 in 10.0 mi ESE 15.0 mph - N/A   Clear
2:35 PM -4.0 °F -24.5 °F -13.0 °F 65% 30.29 in 10.0 mi ESE 15.0 mph - N/A   Clear
2:55 PM -4.0 °F -24.5 °F -14.8 °F 60% 30.28 in 10.0 mi ESE 15.0 mph - N/A   Clear
3:15 PM -2.2 °F -21.5 °F -13.0 °F 60% 30.28 in 10.0 mi ESE 13.8 mph - N/A   Clear
3:35 PM -2.2 °F -22.9 °F -13.0 °F 60% 30.29 in 10.0 mi ESE 16.1 mph - N/A   Clear
3:55 PM -2.2 °F -22.9 °F -13.0 °F 60% 30.28 in 10.0 mi ESE 16.1 mph - N/A   Clear
4:15 PM -2.2 °F -22.9 °F -16.6 °F 50% 30.26 in 10.0 mi ESE 16.1 mph - N/A   Clear
4:35 PM -2.2 °F -22.9 °F -14.8 °F 55% 30.26 in 10.0 mi ESE 16.1 mph 21.9 mph N/A   Clear
4:55 PM -4.0 °F -24.5 °F -14.8 °F 60% 30.26 in 10.0 mi ESE 15.0 mph 21.9 mph N/A   Clear
5:15 PM -4.0 °F -24.5 °F -16.6 °F 55% 30.26 in 10.0 mi ESE 15.0 mph 19.6 mph N/A   Clear
6:35 PM -7.6 °F -27.5 °F -16.6 °F 65% 30.25 in 10.0 mi East 12.7 mph - N/A   Clear
6:55 PM -7.6 °F -27.5 °F -16.6 °F 65% 30.25 in 10.0 mi ESE 12.7 mph - N/A   Clear
7:15 PM -7.6 °F -29.1 °F -16.6 °F 65% 30.25 in 10.0 mi ESE 15.0 mph - N/A   Clear
7:35 PM -7.6 °F -29.8 °F -16.6 °F 65% 30.25 in 10.0 mi East 16.1 mph 19.6 mph N/A   Clear
7:55 PM -7.6 °F -28.3 °F -16.6 °F 65% 30.25 in 10.0 mi ESE 13.8 mph - N/A   Clear
8:15 PM -7.6 °F -29.8 °F -16.6 °F 65% 30.25 in 10.0 mi ESE 16.1 mph - N/A   Clear
8:35 PM -7.6 °F -26.6 °F -16.6 °F 65% 30.24 in 10.0 mi ESE 11.5 mph - N/A   Clear
8:55 PM -7.6 °F -27.5 °F -16.6 °F 65% 30.24 in 10.0 mi ESE 12.7 mph - N/A   Clear
9:15 PM -7.6 °F -29.1 °F -16.6 °F 65% 30.24 in 10.0 mi ESE 15.0 mph - N/A   Clear
9:35 PM -7.6 °F -29.8 °F -16.6 °F 65% 30.23 in 10.0 mi ESE 16.1 mph - N/A   Clear
9:55 PM -7.6 °F -30.5 °F -14.8 °F 71% 30.23 in 10.0 mi ESE 17.3 mph 23.0 mph N/A   Clear
10:15 PM -7.6 °F -29.8 °F -14.8 °F 71% 30.22 in 10.0 mi ESE 16.1 mph 20.7 mph N/A   Clear
10:35 PM -7.6 °F -31.7 °F -13.0 °F 77% 30.22 in 10.0 mi ESE 19.6 mph 24.2 mph N/A   Clear
10:55 PM -7.6 °F -30.5 °F -13.0 °F 77% 30.22 in 10.0 mi ESE 17.3 mph 24.2 mph N/A   Clear
11:15 PM -7.6 °F -30.5 °F -13.0 °F 77% 30.22 in 10.0 mi ESE 17.3 mph 23.0 mph N/A   Clear
11:35 PM -7.6 °F -31.1 °F -13.0 °F 77% 30.23 in 10.0 mi ESE 18.4 mph 23.0 mph N/A   Clear
11:55 PM -5.8 °F -26.0 °F -13.0 °F 71% 30.23 in 10.0 mi ESE 13.8 mph - N/A   Clear